Temp
-0 -0 -0 -1 -1 -1 -1 -2 -2 -3 -4 -6 -7 -8 -9 -10 -10 -10 -11 -13 -14 -14 -15 -15 -16 -15 -16 -17 -17 -15 -15 -15 -13 -11 -10 -9 -10 -13 -13 -8 -9 -6 -9 -19
-1 -1 -1 -1 -1 -1 -2 -2 -3 -4 -5 -6 -8 -9 -10 -10 -10 -11 -12 -14 -15 -16 -15 -16 -16 -15 -16 -17 -17 -17 -16 -16 -16 -11 -11 -12 -15 -18 -16 -13 -12 -9 -10 -21
-1 -1 -1 -1 -2 -2 -3 -3 -4 -5 -6 -7 -8 -9 -10 -11 -11 -12 -14 -14 -15 -15 -15 -16 -16 -16 -16 -17 -17 -17 -17 -19 -19 -21 -24 -22 -23 -20 -17 -13 -15 -18 -20 -22
-2 -2 -2 -2 -3 -3 -4 -5 -6 -7 -8 -9 -10 -10 -11 -11 -12 -13 -14 -15 -15 -16 -16 -17 -17 -17 -16 -17 -17 -18 -19 -21 -20 -20 -20 -20 -22 -22 -22 -20 -18 -18 -22 -23
-2 -2 -3 -3 -4 -5 -5 -6 -7 -8 -9 -10 -11 -11 -12 -11 -13 -13 -13 -14 -15 -16 -17 -18 -18 -18 -18 -19 -18 -19 -19 -20 -19 -21 -18 -19 -20 -23 -21 -23 -24 -23 -23 -23
-3 -3 -4 -5 -5 -5 -6 -7 -8 -9 -11 -11 -11 -12 -12 -12 -13 -14 -13 -14 -14 -15 -16 -17 -18 -18 -18 -19 -20 -21 -19 -19 -19 -17 -18 -19 -21 -23 -24 -23 -22 -22 -23 -24
-4 -4 -5 -6 -6 -6 -7 -8 -9 -10 -11 -12 -12 -13 -13 -13 -13 -13 -14 -14 -14 -15 -16 -17 -18 -18 -18 -18 -19 -20 -19 -18 -18 -18 -19 -22 -23 -23 -23 -23 -23 -23 -23 -23
-5 -5 -6 -7 -7 -8 -8 -9 -10 -11 -12 -12 -13 -13 -13 -13 -13 -14 -14 -14 -14 -15 -15 -16 -17 -17 -18 -18 -18 -19 -19 -18 -19 -20 -23 -23 -22 -22 -22 -23 -23 -23 -23 -22
-5 -6 -7 -8 -8 -9 -9 -10 -10 -12 -12 -14 -14 -13 -14 -14 -14 -14 -15 -14 -15 -15 -15 -16 -19 -20 -21 -19 -18 -18 -18 -18 -18 -20 -23 -23 -23 -23 -22 -22 -22 -22 -21 -21
-6 -7 -8 -8 -9 -10 -10 -11 -11 -12 -13 -14 -14 -14 -15 -15 -15 -14 -14 -15 -15 -15 -15 -17 -20 -21 -21 -22 -23 -22 -19 -19 -20 -21 -22 -22 -22 -22 -21 -21 -21 -21 -21 -21
-8 -8 -9 -9 -10 -11 -11 -11 -12 -13 -14 -14 -15 -15 -15 -15 -15 -15 -15 -15 -16 -16 -16 -18 -20 -20 -22 -22 -23 -23 -23 -21 -22 -21 -21 -24 -22 -21 -21 -22 -21 -20 -20 -20
-8 -9 -9 -10 -11 -11 -11 -12 -12 -13 -14 -15 -15 -15 -16 -16 -16 -16 -16 -17 -17 -17 -18 -19 -19 -20 -22 -23 -23 -23 -22 -23 -23 -23 -22 -22 -21 -22 -21 -21 -20 -20 -20 -20
-9 -10 -10 -11 -11 -11 -12 -13 -13 -13 -14 -15 -15 -16 -16 -17 -17 -16 -17 -17 -17 -18 -18 -18 -20 -21 -21 -22 -23 -24 -23 -23 -22 -22 -22 -22 -22 -21 -21 -21 -20 -20 -20 -20
-9 -10 -10 -11 -11 -11 -13 -13 -13 -13 -15 -15 -16 -16 -17 -17 -18 -17 -17 -17 -18 -18 -18 -19 -19 -21 -22 -22 -23 -24 -24 -24 -23 -22 -22 -21 -21 -22 -21 -21 -21 -20 -20 -20
-9 -10 -11 -11 -12 -12 -13 -13 -14 -14 -15 -15 -16 -16 -17 -17 -18 -18 -18 -18 -18 -18 -18 -19 -20 -20 -21 -22 -23 -24 -24 -24 -24 -24 -23 -22 -21 -21 -21 -21 -21 -21 -20 -20
-9 -10 -10 -12 -12 -12 -13 -14 -15 -15 -15 -15 -16 -17 -17 -18 -17 -18 -18 -18 -18 -18 -19 -19 -20 -21 -21 -22 -23 -23 -23 -23 -24 -23 -22 -21 -21 -21 -21 -21 -21 -21 -20 -20
-9 -10 -11 -12 -12 -13 -14 -15 -15 -15 -15 -16 -16 -17 -17 -18 -18 -17 -18 -18 -18 -18 -19 -19 -20 -20 -22 -22 -24 -22 -22 -22 -22 -22 -21 -20 -20 -20 -20 -20 -20 -20 -20 -21
-9 -10 -12 -12 -12 -13 -14 -14 -15 -15 -16 -17 -18 -17 -17 -18 -18 -18 -18 -18 -18 -18 -19 -19 -20 -21 -22 -23 -23 -22 -21 -21 -21 -21 -21 -21 -20 -20 -20 -20 -20 -20 -20 -21
-9 -11 -12 -12 -12 -13 -14 -15 -15 -15 -17 -18 -18 -18 -18 -18 -17 -17 -18 -18 -18 -19 -19 -19 -20 -21 -22 -23 -22 -22 -21 -21 -21 -20 -21 -21 -20 -20 -20 -20 -20 -20 -20 -20
-10 -11 -11 -13 -13 -13 -14 -15 -15 -16 -17 -18 -18 -18 -18 -17 -17 -18 -18 -18 -18 -18 -19 -20 -20 -21 -22 -22 -22 -22 -21 -21 -21 -20 -20 -20 -20 -20 -21 -21 -21 -21 -21 -21
-10 -11 -12 -13 -13 -14 -16 -16 -17 -17 -18 -18 -18 -18 -18 -18 -17 -17 -18 -18 -18 -19 -19 -19 -20 -21 -22 -22 -21 -21 -21 -21 -22 -22 -22 -22 -22 -22 -22 -22 -22 -22 -22 -22
-10 -11 -13 -13 -15 -16 -16 -17 -18 -18 -18 -18 -18 -18 -17 -18 -18 -18 -19 -19 -19 -19 -20 -20 -20 -21 -22 -22 -21 -21 -22 -22 -22 -22 -22 -22 -22 -23 -23 -23 -23 -23 -23 -24
-11 -12 -14 -15 -16 -17 -18 -19 -19 -18 -18 -18 -18 -18 -17 -17 -18 -18 -19 -19 -19 -20 -20 -20 -21 -22 -22 -21 -22 -22 -22 -22 -22 -23 -23 -23 -23 -24 -24 -24 -25 -25 -25 -25
-11 -14 -15 -16 -17 -18 -18 -18 -18 -18 -17 -18 -18 -18 -18 -18 -18 -19 -19 -20 -20 -20 -20 -21 -22 -22 -22 -22 -22 -22 -22 -23 -23 -24 -24 -24 -25 -25 -25 -25 -26 -26 -26 -25
-13 -14 -16 -18 -18 -18 -18 -18 -18 -18 -17 -17 -17 -18 -18 -19 -19 -20 -20 -20 -20 -21 -22 -22 -23 -23 -23 -23 -23 -23 -23 -24 -24 -24 -25 -25 -25 -25 -26 -26 -26 -27 -27 -26
-14 -16 -16 -17 -17 -17 -17 -18 -18 -18 -17 -17 -18 -19 -19 -20 -20 -21 -21 -22 -22 -23 -22 -22 -23 -23 -23 -23 -23 -24 -24 -24 -25 -25 -26 -26 -26 -27 -27 -27 -27 -28 -28 -28
-15 -16 -17 -17 -18 -18 -18 -18 -18 -18 -17 -17 -18 -19 -20 -21 -21 -21 -22 -23 -22 -22 -22 -22 -23 -23 -23 -24 -24 -24 -24 -25 -25 -26 -26 -27 -27 -27 -27 -28 -28 -28 -28 -28
Height
3059 3054 3048 3042 3037 3031 3024 3018 3012 3006 3000 2998 2992 2988 2986 2982 2977 2973 2970 2966 2962 2957 2952 2945 2945 2942 2938 2934 2927 2918 2913 2906 2895 2891 2886 2882 2882 2881 2879 2875 2877 2879 2883 2908
3057 3051 3045 3040 3034 3029 3023 3015 3009 3003 2998 2995 2990 2987 2984 2980 2975 2969 2965 2962 2959 2954 2950 2946 2942 2941 2938 2933 2925 2916 2912 2906 2898 2886 2885 2880 2882 2884 2880 2878 2874 2872 2881 2907
3054 3050 3043 3038 3032 3025 3020 3013 3007 3001 2993 2991 2987 2984 2981 2977 2971 2967 2964 2961 2956 2951 2948 2946 2940 2938 2935 2930 2924 2916 2911 2909 2906 2910 2915 2908 2899 2888 2880 2877 2879 2878 2887 2896
3052 3046 3041 3035 3029 3023 3017 3011 3006 3000 2995 2990 2986 2984 2981 2975 2970 2967 2964 2960 2955 2949 2945 2941 2939 2935 2931 2929 2924 2916 2913 2914 2912 2911 2911 2909 2903 2894 2885 2877 2878 2881 2901 2902
3051 3046 3038 3032 3026 3019 3016 3010 3005 3000 2994 2992 2988 2983 2979 2973 2970 2967 2963 2958 2953 2949 2945 2942 2937 2934 2931 2928 2923 2918 2917 2916 2914 2911 2908 2906 2903 2901 2896 2894 2897 2895 2901 2911
3049 3043 3036 3030 3022 3017 3012 3007 3004 2999 2994 2991 2988 2983 2976 2972 2969 2967 2961 2957 2952 2947 2944 2941 2939 2936 2934 2931 2925 2920 2917 2915 2913 2909 2908 2906 2909 2915 2914 2913 2915 2912 2911 2916
3047 3042 3035 3029 3023 3017 3012 3006 3003 2998 2994 2993 2990 2985 2978 2974 2971 2967 2963 2958 2952 2949 2944 2942 2940 2937 2936 2933 2930 2925 2917 2913 2913 2910 2908 2923 2934 2929 2927 2924 2922 2919 2921 2923
3045 3040 3034 3030 3022 3018 3012 3007 3003 2996 2994 2992 2989 2986 2981 2977 2972 2969 2964 2959 2956 2951 2947 2943 2941 2939 2938 2936 2934 2930 2920 2915 2915 2916 2921 2934 2933 2932 2931 2930 2929 2927 2926 2926
3045 3040 3033 3030 3023 3017 3011 3005 3000 2997 2994 2993 2990 2986 2983 2979 2975 2971 2966 2961 2958 2955 2949 2945 2946 2946 2945 2943 2938 2935 2929 2922 2919 2921 2927 2939 2941 2936 2934 2934 2933 2932 2931 2929
3045 3038 3034 3030 3024 3017 3011 3004 3001 2997 2995 2994 2991 2987 2984 2981 2976 2971 2967 2964 2961 2957 2953 2950 2953 2955 2954 2953 2949 2941 2931 2927 2928 2931 2934 2941 2941 2939 2936 2937 2943 2934 2933 2932
3046 3038 3035 3030 3024 3018 3012 3005 3001 2999 2996 2995 2993 2990 2986 2982 2978 2974 2971 2967 2964 2960 2957 2958 2959 2961 2960 2960 2957 2952 2948 2943 2941 2941 2941 2946 2943 2941 2940 2941 2937 2935 2934 2933
3045 3040 3036 3031 3024 3019 3013 3009 3004 3000 2998 2997 2995 2991 2988 2985 2982 2978 2974 2972 2968 2965 2963 2964 2964 2965 2965 2963 2961 2959 2957 2957 2955 2954 2952 2949 2945 2943 2941 2938 2936 2934 2932 2930
3044 3040 3036 3031 3024 3020 3017 3011 3006 3001 2998 2997 2996 2993 2990 2987 2984 2982 2979 2975 2972 2970 2969 2967 2968 2969 2969 2966 2965 2963 2959 2956 2954 2952 2951 2947 2945 2942 2940 2937 2935 2933 2930 2929
3044 3041 3036 3030 3025 3021 3018 3014 3008 3002 2998 2998 2997 2995 2992 2989 2986 2984 2981 2979 2976 2975 2973 2971 2971 2970 2971 2969 2968 2964 2962 2957 2953 2950 2948 2944 2942 2939 2936 2935 2931 2929 2927 2925
3043 3040 3036 3031 3027 3023 3019 3015 3010 3005 3003 2999 2997 2995 2993 2990 2987 2986 2984 2983 2981 2980 2978 2976 2975 2973 2973 2972 2968 2964 2962 2957 2953 2948 2945 2942 2939 2936 2932 2929 2927 2924 2921 2920
3043 3040 3037 3032 3028 3024 3020 3017 3013 3007 3002 2999 2998 2996 2993 2989 2986 2985 2985 2984 2983 2982 2981 2979 2977 2976 2975 2973 2970 2968 2963 2958 2953 2947 2942 2938 2934 2931 2927 2923 2921 2918 2915 2913
3043 3041 3037 3034 3030 3025 3022 3018 3015 3010 3005 3001 2999 2996 2994 2991 2987 2984 2984 2984 2984 2984 2982 2980 2979 2977 2976 2973 2968 2964 2959 2955 2950 2944 2938 2935 2930 2925 2921 2917 2913 2910 2907 2903
3045 3041 3038 3036 3033 3027 3023 3020 3016 3013 3009 3005 3003 2999 2994 2991 2987 2986 2985 2985 2985 2985 2984 2981 2980 2978 2976 2976 2972 2964 2957 2951 2946 2941 2935 2929 2924 2920 2915 2911 2906 2902 2899 2896
3045 3042 3040 3038 3035 3030 3026 3020 3017 3016 3015 3009 3006 3000 2996 2993 2990 2987 2987 2986 2986 2986 2984 2982 2981 2978 2977 2975 2966 2960 2953 2946 2940 2937 2931 2926 2919 2913 2909 2904 2899 2894 2890 2886
3046 3044 3041 3037 3035 3033 3028 3023 3020 3017 3014 3010 3007 3004 2999 2997 2992 2990 2989 2988 2987 2986 2986 2982 2980 2978 2976 2972 2965 2958 2951 2944 2936 2929 2923 2917 2913 2907 2902 2897 2891 2885 2880 2876
3049 3044 3041 3040 3037 3034 3029 3027 3022 3020 3018 3013 3010 3006 3002 2998 2995 2992 2991 2990 2988 2987 2987 2983 2981 2978 2975 2968 2962 2955 2947 2940 2934 2926 2919 2912 2905 2898 2892 2888 2884 2878 2873 2867
3050 3047 3043 3041 3038 3036 3036 3032 3030 3027 3025 3020 3014 3010 3005 3001 2997 2995 2994 2992 2991 2989 2987 2984 2981 2978 2973 2964 2956 2948 2941 2933 2927 2920 2912 2906 2899 2892 2885 2878 2872 2867 2863 2858
3052 3048 3045 3045 3047 3046 3042 3041 3038 3035 3029 3023 3017 3014 3010 3004 3001 2998 2997 2995 2994 2991 2987 2986 2982 2975 2967 2957 2949 2941 2935 2927 2920 2912 2905 2898 2890 2884 2877 2870 2864 2858 2853 2848
3052 3051 3052 3055 3058 3057 3052 3048 3043 3038 3030 3024 3019 3015 3012 3008 3006 3002 3000 2998 2994 2991 2989 2985 2977 2968 2959 2951 2943 2934 2925 2918 2910 2902 2894 2887 2880 2873 2867 2861 2855 2848 2843 2838
3055 3058 3062 3064 3064 3061 3056 3051 3045 3039 3032 3025 3021 3017 3016 3012 3010 3008 3006 3003 2999 2995 2990 2980 2972 2963 2954 2944 2935 2926 2918 2909 2901 2893 2885 2878 2871 2864 2858 2852 2846 2839 2833 2828
3061 3065 3069 3069 3067 3063 3058 3052 3046 3039 3032 3028 3023 3020 3018 3017 3016 3014 3010 3007 3001 2994 2985 2976 2966 2957 2948 2938 2929 2920 2911 2902 2893 2886 2877 2870 2862 2855 2848 2843 2836 2830 2824 2818
3070 3071 3070 3068 3066 3062 3056 3051 3045 3041 3035 3030 3027 3027 3025 3023 3020 3016 3013 3007 2999 2989 2980 2972 2963 2952 2942 2932 2923 2914 2905 2896 2887 2879 2871 2862 2855 2847 2839 2832 2827 2820 2814 2809
Wind_Speed
27 28 29 31 32 31 31 31 29 24 26 18 20 17 16 21 22 21 14 15 15 18 25 18 8 10 20 32 31 31 9 14 24 30 26 21 7 10 5 5 5 6 7 4
25 28 31 31 31 31 31 30 26 26 24 18 21 19 17 19 21 19 21 15 15 22 19 8 12 12 20 29 31 26 18 7 11 8 9 8 13 24 16 19 13 6 6 7
27 28 29 30 31 31 32 31 20 25 21 24 22 21 22 22 19 18 21 15 22 22 14 11 11 21 20 18 30 20 9 11 5 7 12 12 20 29 19 4 6 5 7 34
26 28 29 30 32 33 31 29 22 23 19 20 20 21 21 22 20 19 20 13 18 20 15 18 15 26 23 14 30 20 13 9 19 27 28 30 37 32 32 29 5 7 23 28
27 30 32 32 32 32 30 26 22 20 17 19 17 20 22 23 20 21 21 20 19 17 18 17 23 21 15 20 31 31 14 7 6 6 9 11 44 43 27 30 31 35 30 24
29 32 33 33 33 33 30 26 22 19 17 19 20 23 24 21 20 20 22 23 22 20 18 9 8 10 13 21 30 33 21 3 5 2 13 3 16 34 33 23 14 17 14 17
30 31 33 33 32 31 29 25 21 19 16 16 18 19 21 20 17 19 20 22 24 19 12 7 7 9 13 17 24 27 22 7 4 7 4 7 7 16 15 24 22 21 16 11
30 32 34 33 32 30 27 25 20 18 15 17 18 17 18 19 17 18 18 20 22 20 16 10 4 12 7 16 24 25 25 7 9 7 15 8 16 17 17 15 17 15 12 9
32 33 33 32 31 31 29 28 26 20 16 17 17 17 19 20 18 16 23 19 20 18 20 20 14 12 12 18 12 23 30 27 17 11 8 4 16 14 10 5 12 11 8 7
32 33 33 32 31 31 31 28 25 21 14 16 18 20 21 21 22 21 16 21 19 19 19 18 14 11 11 13 19 27 34 30 32 23 8 8 20 19 5 5 8 10 8 6
31 32 31 31 30 31 31 30 26 21 15 16 18 18 19 22 23 23 22 14 23 18 18 14 9 15 15 8 32 20 29 16 14 13 9 5 20 12 11 10 10 9 9 6
29 30 29 29 29 31 30 26 25 22 14 13 16 20 22 18 20 21 23 23 24 20 14 12 11 13 9 29 11 26 15 20 16 10 8 18 9 17 14 13 12 12 11 11
27 28 27 26 27 29 25 23 24 22 12 10 14 21 22 20 16 19 21 23 23 20 16 14 13 13 25 11 34 33 25 27 19 13 15 21 8 17 15 14 13 13 13 13
26 26 26 25 25 27 20 21 24 23 13 10 13 15 20 23 10 15 18 19 23 22 22 19 23 20 22 18 20 42 38 28 28 20 21 20 14 20 20 17 18 17 16 16
25 26 25 24 23 26 17 21 23 23 17 10 10 15 19 21 10 8 13 15 16 17 20 18 14 11 15 26 21 41 43 27 29 31 25 23 22 21 22 22 21 21 21 19
24 24 24 21 22 26 18 19 26 28 25 11 11 14 19 28 14 3 2 6 12 15 16 17 17 14 12 20 20 44 37 29 26 27 25 24 24 23 24 25 24 24 23 22
22 22 19 19 22 23 17 22 24 24 31 19 15 14 17 24 15 7 1 5 7 10 18 14 16 15 11 22 38 46 37 32 29 26 26 23 22 22 22 25 25 25 25 26
21 17 15 17 24 24 18 16 18 29 26 23 19 15 16 25 12 8 6 5 6 6 15 11 13 14 14 23 44 39 35 32 30 29 28 28 27 25 24 24 26 26 26 27
19 15 13 10 24 31 20 22 16 16 19 27 26 31 23 22 15 11 7 7 5 8 19 9 10 13 15 38 45 40 37 36 36 31 30 29 29 29 28 27 26 27 26 27
18 14 19 16 17 35 28 22 16 18 19 32 31 28 26 21 13 12 5 8 7 3 17 8 7 6 25 47 44 40 38 37 37 38 36 36 33 33 31 31 31 32 32 31
18 19 16 22 13 26 20 21 21 18 15 32 31 29 25 23 16 13 9 8 8 4 13 9 9 10 35 48 42 39 38 37 36 36 36 36 37 38 37 34 33 33 33 32
17 19 9 18 21 12 23 20 19 16 19 31 25 26 23 24 15 10 10 7 9 5 16 7 11 25 49 45 42 42 42 41 40 39 39 38 37 36 37 37 37 35 34 33
11 17 16 9 16 20 18 23 23 30 31 27 19 20 23 19 19 9 7 6 10 13 7 15 19 48 45 45 45 45 43 42 42 41 40 39 38 36 36 35 35 35 35 34
10 11 18 15 12 19 26 25 26 28 30 21 19 12 16 19 13 9 8 12 10 8 9 27 48 47 47 46 46 46 47 46 45 44 42 41 39 37 35 34 34 34 35 34
17 10 12 19 20 25 27 24 25 27 28 17 17 14 15 16 9 10 8 14 9 9 31 48 48 47 47 48 48 48 49 48 45 43 42 40 39 37 35 34 35 35 36 36
26 17 14 13 15 22 28 24 28 30 27 18 17 17 9 10 9 10 8 17 10 38 47 47 48 49 48 49 49 48 46 44 44 42 42 41 39 38 37 35 33 33 34 34
17 17 16 16 20 27 30 29 30 28 26 17 18 13 15 10 12 13 22 29 39 42 44 44 45 46 47 46 44 44 44 44 43 42 41 39 37 36 36 36 34 34 32 30
Wind_Direction
336 336 338 339 340 341 340 340 339 339 339 341 352 353 353 339 338 342 342 317 311 316 331 323 321 323 353 347 350 343 331 296 286 289 282 276 251 353 309 243 207 184 135 107
340 342 343 343 343 343 342 343 344 341 342 345 357 359 2 348 349 351 350 349 340 336 333 322 305 306 329 340 349 353 325 303 316 304 216 49 29 1 346 308 275 108 144 153
347 345 345 344 345 345 346 348 344 341 340 352 352 357 0 2 359 360 354 354 339 338 356 328 312 330 339 352 360 358 360 27 28 102 56 23 21 22 16 343 338 67 58 141
347 347 346 347 347 348 350 351 348 347 346 357 357 3 4 359 8 5 6 0 351 348 349 346 336 339 349 20 16 17 28 87 88 94 67 50 50 36 42 50 46 81 124 128
348 347 350 351 351 354 351 354 356 352 349 357 359 7 7 7 7 7 7 8 6 2 352 345 337 342 11 11 12 23 17 110 91 194 347 4 40 39 49 64 71 106 130 116
350 352 353 354 355 355 353 360 358 356 358 1 1 10 9 10 6 5 11 12 12 9 3 20 29 28 35 26 14 3 2 295 307 322 347 56 19 17 35 61 92 111 103 124
353 354 357 356 356 357 0 4 359 0 9 12 18 14 9 12 13 14 16 17 19 16 19 38 26 25 33 46 29 7 3 17 6 327 16 49 18 33 43 52 61 72 92 112
356 358 358 357 358 1 7 8 7 10 9 18 16 12 14 16 20 24 23 24 23 22 39 50 15 25 27 27 32 35 25 50 35 80 54 112 27 23 29 38 44 50 59 75
360 359 359 357 0 5 9 9 7 13 12 23 18 15 17 22 26 33 34 28 29 23 45 53 36 30 11 12 34 50 56 61 76 53 69 65 0 358 359 41 38 28 47 53
360 1 359 358 2 7 9 10 10 13 10 26 19 24 25 23 25 28 33 33 37 32 41 51 46 39 33 22 13 8 24 33 38 44 78 59 20 20 34 46 355 16 27 32
359 0 357 359 3 7 7 10 10 10 10 25 26 23 26 26 26 29 31 33 32 30 39 46 52 41 40 33 32 19 24 14 12 21 37 10 2 18 32 4 357 3 357 357
357 356 358 360 3 5 4 7 9 7 1 26 25 24 24 25 30 33 35 39 35 37 46 60 67 59 49 44 31 28 26 22 23 9 15 4 360 359 357 352 346 339 336 330
356 356 358 3 5 2 0 7 8 8 358 15 15 21 20 19 29 37 38 42 38 41 46 62 68 65 53 61 35 25 21 8 0 11 344 351 349 349 345 339 328 321 317 314
354 354 360 4 5 3 5 8 11 14 15 12 12 10 15 16 27 38 47 48 52 56 55 67 73 70 47 37 26 19 9 357 347 356 342 340 336 332 327 326 318 316 313 311
353 355 358 360 3 5 10 15 21 25 22 23 17 11 9 4 5 34 54 63 57 41 42 55 55 47 44 30 21 8 2 352 343 331 329 315 326 322 315 314 311 310 308 305
354 356 356 0 2 2 10 27 28 29 28 34 19 11 11 9 16 10 52 40 29 25 25 34 34 31 28 18 14 356 356 357 341 332 328 321 317 312 306 304 301 299 300 299
357 355 4 12 9 10 12 36 27 22 24 32 12 8 4 2 1 19 303 327 351 17 26 30 32 26 31 12 2 352 352 354 353 347 337 334 329 324 314 307 305 303 303 300
356 5 14 31 27 20 24 9 19 15 18 26 15 6 5 0 15 24 35 20 17 30 17 38 33 25 37 0 349 349 349 348 348 349 346 340 336 331 323 315 310 306 300 293
6 19 20 17 30 28 29 20 10 351 9 22 15 17 10 14 26 33 50 38 48 46 23 33 26 30 15 353 349 349 348 347 343 343 340 337 334 333 331 326 321 315 311 305
14 8 24 26 32 25 26 21 16 7 8 15 19 15 9 12 20 25 33 23 27 18 10 6 3 360 353 347 346 344 343 343 340 337 337 335 333 330 329 326 323 320 318 315
14 11 29 26 19 25 24 20 19 13 9 7 9 9 13 14 26 33 31 13 4 1 359 351 346 341 344 339 339 341 340 339 338 335 333 331 328 327 324 322 319 317 315 313
15 18 20 19 30 27 18 17 12 10 1 1 7 15 18 22 22 25 13 17 360 348 339 345 332 339 336 335 337 340 339 337 336 333 330 328 326 324 321 319 317 316 314 312
10 29 29 24 22 27 5 7 6 2 356 356 360 12 18 18 15 11 2 358 348 329 345 347 334 331 334 336 336 335 336 334 332 330 328 326 325 323 320 317 315 314 313 312
43 42 39 43 30 14 10 5 358 356 356 353 360 0 16 16 10 358 353 340 338 340 333 333 334 334 333 335 336 334 334 334 333 331 330 330 328 326 324 320 318 315 314 314
54 49 46 39 31 20 14 11 6 5 5 9 12 19 18 21 14 9 354 347 338 336 325 330 335 336 336 336 335 335 335 334 334 334 333 331 329 327 324 321 317 314 313 313
57 62 52 42 22 14 12 15 14 11 13 27 35 26 6 18 11 348 344 334 326 320 332 335 336 337 337 335 335 335 334 335 336 335 333 332 330 328 325 322 320 320 317 318
51 47 39 30 21 15 17 17 16 13 17 32 43 32 19 2 353 354 343 332 331 332 335 336 337 336 336 337 337 338 340 338 337 337 337 337 335 332 331 331 330 326 327 326